Augusta Bush, GA

1:03 AM EDT on July 22, 2017 (GMT -0400)
Augusta Regional At Bush

Weather History for KAGS - February, 2013

Change the Weather History Date:

Tuesday, February 19, 2013

  Actual Average Record
Temperature  
Mean Temperature 45 °F 50 °F  
Max Temperature 57 °F 63 °F 82 °F (1956)
Min Temperature 33 °F 37 °F 16 °F (1958)
Degree Days  
Heating Degree Days 20 15  
Month to date heating degree days 330 320  
Since 1 July heating degree days 1655 1905  
Cooling Degree Days 0 0  
Month to date cooling degree days 0 0  
Year to date cooling degree days 15 1  
Moisture  
Dew Point 39 °F    
Average Humidity 70    
Maximum Humidity 93    
Minimum Humidity 46    
Precipitation  
Precipitation 0.33 in 0.14 in 1.34 in (1946)
Month to date precipitation 6.39 2.60  
Year to date precipitation 6.99 6.51  
Sea Level Pressure  
Sea Level Pressure 30.08 in    
Wind  
Wind Speed 5 mph (West)    
Max Wind Speed 15 mph    
Max Gust Speed 20 mph    
Visibility 7 miles    
Events Fog , Rain    
T = Trace of Precipitation, MM = Missing Value Source: NWS Daily Summary

Daily Weather History Graph

Daily Weather History Graph

Search for Another Location

Airport or City:

Trip Planner

Search our weather history database for the weather conditions in past years. The results will help you decide how hot, cold, wet, or windy it might be!

Date:

Astronomy

Feb. 19, 2013 Rise Set
Actual Time 7:07 AM EST 6:16 PM EST
Civil Twilight 6:42 AM EST 6:41 PM EST
Nautical Twilight 6:13 AM EST 7:10 PM EST
Astronomical Twilight 5:44 AM EST 7:39 PM EST
Moon 12:56 PM EST (2/19) 2:29 AM EST (2/19)
Length of Visible Light 11h 59m
Length of Day
11h 09m
Waxing Gibbous, 67% of the Moon is Illuminated
Feb 19
Waxing Gibbous
Feb 25
Full
Mar 4
Last Quarter
Mar 11
New
Mar 19
First Quarter

Hourly Weather History & Observations

Time (EST) Temp. Windchill Dew Point Humidity Pressure Visibility Wind Dir Wind Speed Gust Speed Precip Events Conditions
12:53 AM 37.9 °F 34.4 °F 26.1 °F 62% 30.23 in 10.0 mi SE 4.6 mph - N/A   Clear
1:53 AM 37.9 °F 33.5 °F 27.0 °F 65% 30.19 in 10.0 mi SSE 5.8 mph - N/A   Mostly Cloudy
2:53 AM 36.0 °F 31.1 °F 27.0 °F 70% 30.17 in 10.0 mi SE 5.8 mph - N/A   Mostly Cloudy
3:53 AM 33.1 °F - 28.0 °F 82% 30.13 in 10.0 mi Calm Calm - N/A   Scattered Clouds
4:53 AM 34.0 °F - 28.9 °F 82% 30.11 in 10.0 mi Calm Calm - N/A   Partly Cloudy
5:53 AM 37.0 °F - 30.9 °F 79% 30.12 in 10.0 mi Calm Calm - N/A   Mostly Cloudy
6:53 AM 37.9 °F - 30.9 °F 76% 30.11 in 10.0 mi Calm Calm - 0.00 in Rain Light Rain
7:53 AM 37.9 °F - 36.0 °F 93% 30.12 in 7.0 mi Calm Calm - 0.04 in Rain Rain
8:53 AM 39.0 °F - 37.9 °F 96% 30.10 in 5.0 mi Calm Calm - 0.08 in Rain Rain
9:53 AM 41.0 °F - 39.9 °F 96% 30.10 in 2.5 mi Calm Calm - 0.10 in Rain Rain
9:58 AM 41.0 °F - 41.0 °F 100% 30.09 in 3.0 mi Calm Calm - 0.02 in Rain Rain
10:45 AM 44.6 °F - 42.8 °F 93% 30.09 in 3.0 mi Calm Calm - 0.05 in Rain Light Rain
10:53 AM 44.1 °F - 43.0 °F 96% 30.09 in 3.0 mi Calm Calm - 0.05 in Rain Light Rain
11:26 AM 46.4 °F - 44.6 °F 93% 30.08 in 2.5 mi Calm Calm - 0.01 in   Overcast
11:32 AM 46.4 °F 44.3 °F 44.6 °F 93% 30.08 in 2.0 mi NNW 4.6 mph - 0.01 in Rain Light Rain
11:41 AM 46.4 °F 45.2 °F 44.6 °F 93% 30.09 in 1.2 mi NW 3.5 mph - 0.02 in Rain Light Rain
11:53 AM 46.4 °F 44.3 °F 44.6 °F 93% 30.08 in 1.5 mi NNW 4.6 mph - N/A Rain Light Rain
12:04 PM 46.4 °F 43.5 °F 44.6 °F 93% 30.07 in 2.0 mi North 5.8 mph - 0.00 in   Overcast
12:22 PM 48.2 °F - 46.4 °F 93% 30.06 in 2.0 mi Calm Calm - 0.00 in   Overcast
12:35 PM 48.2 °F - 46.4 °F 93% 30.05 in 2.0 mi Calm Calm - 0.01 in   Overcast
1:53 PM 51.1 °F - 48.9 °F 92% 30.02 in 2.0 mi WSW 11.5 mph - 0.02 in Rain Light Rain
1:56 PM 51.8 °F - 50.0 °F 94% 30.02 in 3.0 mi SW 9.2 mph - 0.00 in Rain Light Rain
2:53 PM 53.1 °F - 50.0 °F 89% 30.01 in 10.0 mi West 11.5 mph - 0.00 in   Overcast
3:38 PM 55.4 °F - 48.2 °F 77% 30.00 in 10.0 mi West 10.4 mph - N/A   Overcast
3:53 PM 55.0 °F - 48.0 °F 77% 30.00 in 10.0 mi West 11.5 mph - N/A   Overcast
4:53 PM 55.9 °F - 48.0 °F 75% 30.01 in 10.0 mi Calm Calm - N/A   Scattered Clouds
5:53 PM 55.0 °F - 46.9 °F 74% 30.00 in 10.0 mi SW 4.6 mph - N/A   Clear
7:25 PM 42.8 °F - 42.8 °F 100% 30.03 in 1.5 mi Calm Calm - N/A   Clear
7:35 PM 42.8 °F - 42.8 °F 100% 30.03 in 10.0 mi Calm Calm - N/A   Clear
7:53 PM 44.1 °F - 42.1 °F 93% 30.04 in - Calm Calm - N/A Fog Patches of Fog
8:53 PM 44.1 °F 41.5 °F 42.1 °F 93% 30.05 in 10.0 mi West 4.6 mph - N/A Fog Patches of Fog
9:53 PM 46.9 °F - 34.0 °F 61% 30.07 in 10.0 mi WNW 8.1 mph - N/A   Clear
10:53 PM 48.0 °F - 28.0 °F 46% 30.09 in 10.0 mi WNW 12.7 mph - N/A   Clear
11:53 PM 46.0 °F 41.0 °F 25.0 °F 44% 30.10 in 10.0 mi WNW 10.4 mph - N/A   Clear